Location: Roanoke
(37.2710°N, 79.9420°W)
Time: 15:38:33
(UTC-05:00)

S-56A Canister/Altair - Pass Details

Date: 19 November 2019
Orbit: 633 x 2500 km, 38.9° (Epoch: 08 December)

Event Time Altitude Azimuth Distance (km) Brightness Sun altitude
Rises 20:23:28 0° 279° (W) 4,352 12.3 -38.9°
Reaches altitude 10° 20:26:53 10° 280° (W) 3,084 11.3 -39.6°
Enters shadow 20:30:56 33° 283° (WNW) 1,603 9.4 -40.4°
Maximum altitude 20:34:01 84° 9° (N) 874 - -41.0°
Drops below altitude 10° 20:39:00 10° 98° (E) 2,192 - -42.0°
Sets 20:41:05 0° 99° (E) 3,014 - -42.4°
